Stündliche Wetter Julianow

Heute, 6 März, Samstag

Zeit Temperatur Niederschläge Wind Luftdruck Luftfeuchtigkeit
00:00 -2°C° 0 mm 3 m/S 753 mmHg 62%
01:00 -2°C° 0 mm 3 m/S 753 mmHg 60%
02:00 -4°C° 0 mm 3 m/S 753 mmHg 64%
03:00 -4°C° 0 mm 4 m/S 753 mmHg 67%
04:00 -4°C° 0 mm 4 m/S 753 mmHg 71%
05:00 -4°C° 0 mm 4 m/S 753 mmHg 71%
06:00 -4°C° 0 mm 4 m/S 754 mmHg 71%
07:00 -4°C° 0 mm 4 m/S 754 mmHg 71%
08:00 -3°C° 0 mm 4 m/S 754 mmHg 63%
09:00 -2°C° 0 mm 4 m/S 755 mmHg 55%
10:00 -1°C° 0 mm 5 m/S 755 mmHg 46%
11:00 0°C° 0 mm 5 m/S 755 mmHg 45%
12:00 0°C° 0 mm 5 m/S 754 mmHg 44%
13:00 +1°C° 0 mm 5 m/S 754 mmHg 43%
14:00 0°C° 0 mm 5 m/S 754 mmHg 44%
15:00 0°C° 0 mm 4 m/S 754 mmHg 46%
16:00 0°C° 0 mm 4 m/S 753 mmHg 47%
17:00 -1°C° 0 mm 4 m/S 753 mmHg 51%
18:00 -2°C° 0 mm 4 m/S 753 mmHg 56%
19:00 -3°C° 0 mm 4 m/S 753 mmHg 61%
20:00 -3°C° 0 mm 4 m/S 752 mmHg 61%
21:00 -4°C° 0 mm 5 m/S 752 mmHg 62%
22:00 -4°C° 0 mm 5 m/S 752 mmHg 62%
23:00 -3°C° 0 mm 6 m/S 751 mmHg 64%

Morgen, 7 März, Sonntag

Zeit Temperatur Niederschläge Wind Luftdruck Luftfeuchtigkeit
00:00 -3°C° 0 mm 6 m/S 751 mmHg 66%
01:00 -3°C° 0 mm 6 m/S 751 mmHg 68%
02:00 -3°C° 0 mm 7 m/S 750 mmHg 72%
03:00 -4°C° 0 mm 8 m/S 749 mmHg 75%
04:00 -4°C° 0 mm 8 m/S 749 mmHg 78%
05:00 -4°C° 0.1 mm 8 m/S 748 mmHg 81%
06:00 -4°C° 0.1 mm 9 m/S 748 mmHg 85%
07:00 -4°C° 0.1 mm 9 m/S 748 mmHg 88%
08:00 -3°C° 0 mm 9 m/S 747 mmHg 81%
09:00 -3°C° 0 mm 9 m/S 747 mmHg 74%
10:00 -1°C° 0 mm 9 m/S 747 mmHg 66%
11:00 -1°C° 0 mm 9 m/S 747 mmHg 66%
12:00 0°C° 0 mm 9 m/S 747 mmHg 65%
13:00 0°C° 0 mm 9 m/S 746 mmHg 64%
14:00 0°C° 0 mm 9 m/S 746 mmHg 68%
15:00 -1°C° 0 mm 8 m/S 745 mmHg 72%
16:00 -2°C° 0 mm 8 m/S 745 mmHg 75%
17:00 -2°C° 0 mm 8 m/S 745 mmHg 79%
18:00 -2°C° 0 mm 7 m/S 745 mmHg 82%
19:00 -3°C° 0 mm 7 m/S 745 mmHg 85%
20:00 -3°C° 0.2 mm 7 m/S 745 mmHg 87%
21:00 -3°C° 0.2 mm 7 m/S 745 mmHg 90%
22:00 -4°C° 0.2 mm 7 m/S 745 mmHg 92%
23:00 -4°C° 0.3 mm 5 m/S 745 mmHg 89%

übermorgen, 8 März, Montag

Zeit Temperatur Niederschläge Wind Luftdruck Luftfeuchtigkeit
00:00 -4°C° 0.3 mm 4 m/S 745 mmHg 86%
01:00 -3°C° 0.3 mm 2 m/S 746 mmHg 83%
02:00 -4°C° 0 mm 2 m/S 745 mmHg 82%
03:00 -4°C° 0 mm 2 m/S 745 mmHg 81%
04:00 -4°C° 0 mm 2 m/S 745 mmHg 80%
05:00 -5°C° 0 mm 3 m/S 746 mmHg 80%
06:00 -5°C° 0 mm 3 m/S 746 mmHg 80%
07:00 -5°C° 0 mm 3 m/S 746 mmHg 80%
08:00 -4°C° 0 mm 4 m/S 747 mmHg 73%
09:00 -2°C° 0 mm 4 m/S 747 mmHg 66%
10:00 -1°C° 0 mm 5 m/S 747 mmHg 59%
11:00 -1°C° 0 mm 5 m/S 747 mmHg 57%
12:00 0°C° 0 mm 5 m/S 747 mmHg 55%
13:00 0°C° 0 mm 5 m/S 747 mmHg 53%
14:00 0°C° 0.1 mm 5 m/S 747 mmHg 56%
15:00 -1°C° 0.1 mm 5 m/S 747 mmHg 59%
16:00 -2°C° 0.1 mm 6 m/S 747 mmHg 62%
17:00 -2°C° 0 mm 5 m/S 748 mmHg 66%
18:00 -3°C° 0 mm 4 m/S 748 mmHg 71%
19:00 -4°C° 0 mm 3 m/S 749 mmHg 75%
20:00 -5°C° 0 mm 3 m/S 749 mmHg 77%
21:00 -4°C° 0 mm 2 m/S 749 mmHg 79%
22:00 -4°C° 0 mm 2 m/S 750 mmHg 80%
23:00 -4°C° 0 mm 2 m/S 750 mmHg 81%

9 März, Dienstag

Zeit Temperatur Niederschläge Wind Luftdruck Luftfeuchtigkeit
00:00 -3°C° 0 mm 1 m/S 750 mmHg 81%
01:00 -3°C° 0 mm 1 m/S 750 mmHg 81%
02:00 -3°C° 0 mm 1 m/S 750 mmHg 81%
03:00 -3°C° 0 mm 1 m/S 750 mmHg 80%
04:00 -4°C° 0 mm 0 m/S 750 mmHg 79%
05:00 -4°C° 0 mm 0 m/S 750 mmHg 77%
06:00 -3°C° 0 mm 0 m/S 750 mmHg 75%
07:00 -3°C° 0 mm 0 m/S 751 mmHg 72%
08:00 -1°C° 0 mm 1 m/S 751 mmHg 66%
09:00 0°C° 0 mm 1 m/S 751 mmHg 60%
10:00 -2°C° 0 mm 2 m/S 751 mmHg 54%
11:00 -1°C° 0 mm 2 m/S 751 mmHg 50%
12:00 +1°C° 0 mm 2 m/S 750 mmHg 45%
13:00 +1°C° 0 mm 2 m/S 750 mmHg 41%
14:00 +1°C° 0 mm 2 m/S 750 mmHg 42%
15:00 +1°C° 0 mm 2 m/S 749 mmHg 43%
16:00 +2°C° 0 mm 1 m/S 749 mmHg 44%
17:00 +2°C° 0 mm 1 m/S 749 mmHg 48%
18:00 +1°C° 0 mm 1 m/S 749 mmHg 52%
19:00 0°C° 0 mm 1 m/S 749 mmHg 55%
20:00 0°C° 0 mm 1 m/S 749 mmHg 57%
21:00 -2°C° 0 mm 2 m/S 749 mmHg 58%
22:00 -2°C° 0 mm 2 m/S 749 mmHg 60%
23:00 -2°C° 0 mm 2 m/S 749 mmHg 61%

10 März, Mittwoch

Zeit Temperatur Niederschläge Wind Luftdruck Luftfeuchtigkeit
00:00 -2°C° 0 mm 2 m/S 749 mmHg 63%
01:00 -2°C° 0 mm 2 m/S 749 mmHg 64%
02:00 -2°C° 0 mm 2 m/S 748 mmHg 65%
03:00 -2°C° 0 mm 2 m/S 748 mmHg 65%
04:00 -2°C° 0 mm 2 m/S 748 mmHg 66%
05:00 -2°C° 0 mm 2 m/S 748 mmHg 65%
06:00 -2°C° 0 mm 2 m/S 748 mmHg 65%
07:00 -2°C° 0 mm 2 m/S 748 mmHg 64%
08:00 -1°C° 0 mm 2 m/S 748 mmHg 62%
09:00 +1°C° 0 mm 2 m/S 749 mmHg 60%
10:00 +2°C° 0 mm 2 m/S 749 mmHg 58%
11:00 +3°C° 0 mm 2 m/S 749 mmHg 60%
12:00 +3°C° 0 mm 2 m/S 749 mmHg 61%
13:00 +3°C° 0 mm 3 m/S 749 mmHg 63%
14:00 +2°C° 0 mm 3 m/S 749 mmHg 67%
15:00 +3°C° 0 mm 2 m/S 749 mmHg 70%
16:00 +2°C° 0 mm 2 m/S 748 mmHg 74%
17:00 +2°C° 0 mm 2 m/S 748 mmHg 77%
18:00 +2°C° 0 mm 2 m/S 748 mmHg 80%
19:00 +1°C° 0 mm 2 m/S 748 mmHg 83%
20:00 +1°C° 0 mm 2 m/S 748 mmHg 87%
21:00 +1°C° 0 mm 2 m/S 748 mmHg 91%
22:00 0°C° 0 mm 3 m/S 748 mmHg 95%
23:00 0°C° 0 mm 3 m/S 748 mmHg 95%

11 März, Donnerstag

Zeit Temperatur Niederschläge Wind Luftdruck Luftfeuchtigkeit
00:00 0°C° 0 mm 3 m/S 748 mmHg 95%
01:00 0°C° 0 mm 3 m/S 747 mmHg 95%
02:00 0°C° 0 mm 3 m/S 747 mmHg 95%
03:00 -1°C° 0 mm 4 m/S 746 mmHg 95%
04:00 -1°C° 0 mm 4 m/S 746 mmHg 96%
05:00 -1°C° 0 mm 5 m/S 745 mmHg 93%
06:00 -1°C° 0 mm 5 m/S 745 mmHg 89%
07:00 -1°C° 0 mm 5 m/S 744 mmHg 86%
08:00 -1°C° 0 mm 6 m/S 744 mmHg 81%
09:00 +2°C° 0 mm 7 m/S 744 mmHg 76%
10:00 +3°C° 0 mm 7 m/S 743 mmHg 71%
11:00 +3°C° 0.7 mm 7 m/S 743 mmHg 77%
12:00 +2°C° 0.7 mm 7 m/S 742 mmHg 83%
13:00 +2°C° 0.7 mm 7 m/S 741 mmHg 89%
14:00 +2°C° 0.4 mm 7 m/S 741 mmHg 89%
15:00 +3°C° 0.4 mm 7 m/S 741 mmHg 89%
16:00 +3°C° 0.4 mm 7 m/S 740 mmHg 89%
17:00 +4°C° 0.1 mm 7 m/S 740 mmHg 85%
18:00 +4°C° 0.1 mm 7 m/S 740 mmHg 81%
19:00 +5°C° 0.1 mm 8 m/S 740 mmHg 77%
20:00 +4°C° 0.4 mm 7 m/S 740 mmHg 81%
21:00 +4°C° 0.4 mm 6 m/S 740 mmHg 85%
22:00 +5°C° 0.4 mm 5 m/S 741 mmHg 89%
23:00 +3°C° 0 mm 5 m/S 741 mmHg 89%
Mehr zeigen

Wir brauchen deine Erlaubnis

Meteoprog und unser Service Anbieter werden persönliche Daten aufbewahren, so wie Cookies, Geräte Bezeichnung oder ähnliche Technologien von deinem Gerät und Prozess, so wie Persönliche Daten Inhalte und Werbungen, genauso wie social Media und den Verkehr zu analysieren.

  • Aufbewahrung und/oder Zugang zu deiner Geräte Informationen.

    Cookies, Geräte Bezeichnung oder andere Informationen, können aufbewahrt oder Zugang zu deinem Gerät erhalten, für den Grund, der oben angegeben wird.

  • Personalisierte Werbung und Inhalte, Messungen, Einblick in das Publikum und Produkt Entwicklung.

    Werbungen und Inhalte können personalisiert werden, basierend auf ein Profil. Mehr Daten können besser personalisierte Werbungen und Inhalte hinzufügen. Werbung und Inhalte können gezeigt und gemessen werden. Einblicke über das Publikum, welche die Werbung gesehen haben und den Inhalt, können abgeleitet werden. So wie Daten können genutzt werden, um es zu verbessern oder die Benutzer Erfahrung zu verbessern das System und die Software.

Wenn du “Ich stimme zu” klickst, erlaubst du uns, die Cookies zu benutzen die Geräte Bezeichnung, den Web oder ähnliche Technologien zu benutzen. Deine Settings, können in deinem Gerät bei deinem Browser geändert werden.

Für den bestimmten Zweck, berechtigten Interessen beruhen darauf, mehr als auf den Inhalt. Du kannst mehr darüber in unseren Privaten und Cookie Politik lesen.